Weather History for Stillwater, OK

Change the Weather History Date:

Wednesday, May 9, 2012

  Actual Average Record
Temperature  
Mean Temperature 64 °F -  
Max Temperature 82 °F 76 °F 91 °F (2011)
Min Temperature 48 °F 52 °F 44 °F (1997)
Growing Degree Days 14 (Base 50)    
Moisture  
Dew Point 46 °F    
Average Humidity 58    
Maximum Humidity 89    
Minimum Humidity 26    
Precipitation  
Precipitation 0.00 in - - ()
Sea Level Pressure  
Sea Level Pressure 30.01 in    
Wind  
Wind Speed 4 mph (NW)    
Max Wind Speed 10 mph    
Max Gust Speed -    
Visibility 10 miles    
Events      
Averages and records for this station are not official NWS values.
T = Trace of Precipitation, MM = Missing Value Source: NWS Daily Summary

Daily Weather History Graph

Daily Weather History Graph

Search for Another Location

Airport:

Trip Planner

Search our weather history database for the weather conditions in past years. The results will help you decide how hot, cold, wet, or windy it might be!

Date:

Astronomy

May. 09, 2012 Rise Set
Actual Time 6:26 AM CDT 8:23 PM CDT
Civil Twilight 5:58 AM CDT 8:51 PM CDT
Nautical Twilight 5:24 AM CDT 9:25 PM CDT
Astronomical Twilight 4:47 AM CDT 10:02 PM CDT
Moon No Moon Rise 9:45 AM CDT (5/9)
Length of Visible Light 14h 52m
Length of Day
13h 56m
Waning Gibbous, 82% of the Moon is Illuminated
May 9
Waning Gibbous
May 12
Last Quarter
May 20
New
May 28
First Quarter
Jun 4
Full

Hourly Weather History & Observations

Time (CDT) Temp. Dew Point Humidity Pressure Visibility Wind Dir Wind Speed Gust Speed Precip Events Conditions
12:53 AM 50.0 °F 46.9 °F 89% 30.05 in 10.0 mi WNW 3.5 mph - N/A   Clear
1:53 AM 48.9 °F 45.0 °F 86% 30.05 in 10.0 mi Calm Calm - N/A   Clear
2:53 AM 48.0 °F 45.0 °F 89% 30.04 in 10.0 mi West 3.5 mph - N/A   Clear
3:53 AM 52.0 °F 46.0 °F 80% 30.04 in 10.0 mi Calm Calm - N/A   Clear
4:53 AM 50.0 °F 45.0 °F 83% 30.04 in 10.0 mi WNW 3.5 mph - N/A   Clear
5:53 AM 48.0 °F 44.1 °F 86% 30.05 in 10.0 mi Calm Calm - N/A   Clear
6:53 AM 48.9 °F 45.0 °F 86% 30.05 in 10.0 mi SW 3.5 mph - N/A   Clear
7:53 AM 55.0 °F 48.9 °F 80% 30.06 in 10.0 mi Calm Calm - N/A   Clear
8:53 AM 64.0 °F 48.0 °F 56% 30.08 in 10.0 mi NW 5.8 mph - N/A   Clear
9:53 AM 68.0 °F 46.9 °F 47% 30.08 in 10.0 mi NW 5.8 mph - N/A   Clear
10:53 AM 72.0 °F 46.0 °F 40% 30.07 in 10.0 mi Variable 5.8 mph - N/A   Clear
11:53 AM 75.0 °F 46.0 °F 36% 30.06 in 10.0 mi WNW 8.1 mph - N/A   Clear
12:53 PM 77.0 °F 46.0 °F 33% 30.03 in 10.0 mi NW 9.2 mph - N/A   Clear
1:53 PM 79.0 °F 45.0 °F 30% 30.01 in 10.0 mi NNW 10.4 mph - N/A   Clear
2:53 PM 80.1 °F 44.1 °F 28% 30.00 in 10.0 mi WNW 8.1 mph - N/A   Partly Cloudy
4:53 PM 79.0 °F 44.1 °F 29% 29.95 in 10.0 mi North 5.8 mph - N/A   Scattered Clouds
5:53 PM 81.0 °F 43.0 °F 26% 29.94 in 10.0 mi NW 3.5 mph - N/A   Partly Cloudy
6:53 PM 79.0 °F 44.1 °F 29% 29.93 in 10.0 mi North 4.6 mph - N/A   Partly Cloudy
7:53 PM 72.0 °F 50.0 °F 46% 29.93 in 10.0 mi ENE 6.9 mph - N/A   Clear
8:53 PM 66.0 °F 50.0 °F 56% 29.94 in 10.0 mi East 6.9 mph - N/A   Clear
9:53 PM 64.0 °F 50.0 °F 60% 29.94 in 10.0 mi ESE 5.8 mph - N/A   Clear
10:53 PM 62.1 °F 50.0 °F 65% 29.95 in 10.0 mi ESE 5.8 mph - N/A   Clear
11:53 PM 62.1 °F 50.0 °F 65% 29.94 in 10.0 mi SE 6.9 mph - N/A   Clear